M I D A S
Marine Information and Data Acquisition System
Tripno 62 of the Zeeleeuw from 2001-08-30 06:05:14 to 2001-08-30 14:20:00
Back to CruiseResearch ActivitiesStationsMapUnderway DataData graphs

EquipmentUnitsComments
TimeDGPSUTC
LatitudeDGPSDM.mWGS84
LongitudeDGPSDM.mWGS84
SpeedMeteo Stationm/sRelative wind speed
DirectionMeteo StationdegRelative wind direction
TemperatureMeteo Stationdeg CelciusAir temperature
PressureMeteo StationPaAtmospheric pressure
HumidityMeteo Station%Relative humidity
Missing or incorrect values are displayed as -999
Metereological data collected by the RV Zeeleeuw from 2001-08-30 06:05:14 to 2001-08-30 14:20:00
Time Latitude Longitude Speed Direction Temperature Pressure Humidity
2001-08-30 06:06 51°13.677 2°55.922 0.3 23 15.8 100880 80
2001-08-30 06:07 51°13.676 2°55.922 0.2 23 15.8 100880 80
2001-08-30 06:08 51°13.676 2°55.923 0.1 2 15.8 100880 80
2001-08-30 06:09 51°13.676 2°55.923 0.2 2 15.8 100880 80
2001-08-30 06:10 51°13.676 2°55.923 0.2 12 15.9 100880 80
2001-08-30 06:11 51°13.676 2°55.923 0.6 3 15.9 100880 80
2001-08-30 06:12 51°13.676 2°55.923 0.4 5 15.9 100880 80
2001-08-30 06:13 51°13.677 2°55.923 0.8 13 15.9 100880 80
2001-08-30 06:14 51°13.677 2°55.924 0.7 22 15.9 100880 80
2001-08-30 06:15 51°13.677 2°55.924 1 13 15.9 100880 80
2001-08-30 06:16 51°13.677 2°55.924 0.9 26 16 100880 81
2001-08-30 06:17 51°13.677 2°55.924 1.3 29 16 100880 80
2001-08-30 06:18 51°13.677 2°55.924 1.3 27 16 100880 80
2001-08-30 06:19 51°13.677 2°55.924 1.1 17 16.1 100880 80
2001-08-30 06:20 51°13.677 2°55.924 1.1 19 16.1 100880 81
2001-08-30 06:21 51°13.677 2°55.924 1.4 12 16.1 100880 80
2001-08-30 06:22 51°13.677 2°55.924 1.4 18 16.1 100880 80
2001-08-30 06:23 51°13.677 2°55.923 1.5 13 16.1 100880 81
2001-08-30 06:24 51°13.677 2°55.924 1.6 12 16.2 100880 81
2001-08-30 06:25 51°13.677 2°55.924 1.7 10 16.2 100890 81
2001-08-30 06:26 51°13.677 2°55.924 1.8 11 16.2 100890 81
2001-08-30 06:27 51°13.677 2°55.923 2.2 13 16.2 100890 81
2001-08-30 06:28 51°13.677 2°55.923 2.1 33 16.1 100890 80
2001-08-30 06:29 51°13.676 2°55.923 1.5 15 16.1 100890 80
2001-08-30 06:30 51°13.676 2°55.923 1.2 18 16.2 100890 81
2001-08-30 06:31 51°13.676 2°55.923 1.2 21 16.2 100890 80
2001-08-30 06:32 51°13.676 2°55.923 0.8 352 16.1 100890 80
2001-08-30 06:33 51°13.676 2°55.923 1.4 18 16.1 100890 80
2001-08-30 06:34 51°13.676 2°55.923 1.1 26 16.1 100890 80
2001-08-30 06:35 51°13.676 2°55.923 0.7 38 16.1 100890 80
2001-08-30 06:36 51°13.676 2°55.923 0.9 15 16.1 100890 80
2001-08-30 06:37 51°13.676 2°55.923 1.5 30 16.1 100890 80
2001-08-30 06:38 51°13.676 2°55.924 1.3 29 16.1 100890 80
2001-08-30 06:39 51°13.676 2°55.924 1 26 16.1 100890 80
2001-08-30 06:40 51°13.676 2°55.924 0.9 30 16.1 100890 80
2001-08-30 06:41 51°13.676 2°55.924 0.5 34 16 100890 80
2001-08-30 06:42 51°13.676 2°55.924 1 34 16 100890 79
2001-08-30 06:43 51°13.676 2°55.924 0.6 19 16 100890 79
2001-08-30 06:44 51°13.676 2°55.924 1 20 16.1 100880 80
2001-08-30 06:45 51°13.677 2°55.924 1 20 16 100880 80
2001-08-30 06:46 51°13.677 2°55.924 1.2 25 16 100880 80
2001-08-30 06:47 51°13.677 2°55.924 1 17 16 100880 80
2001-08-30 06:48 51°13.676 2°55.924 0.7 31 16 100880 80
2001-08-30 06:49 51°13.677 2°55.924 0.6 19 16 100880 80
2001-08-30 06:50 51°13.676 2°55.924 0.7 17 16 100880 80
2001-08-30 06:51 51°13.676 2°55.924 0.1 10 16.1 100880 80
2001-08-30 06:52 51°13.676 2°55.923 0.3 10 16.1 100880 79
2001-08-30 06:53 51°13.676 2°55.923 0.1 4 16.1 100880 80
2001-08-30 06:54 51°13.676 2°55.923 0.1 79 16.1 100880 80
2001-08-30 06:55 51°13.676 2°55.924 0.1 102 16.2 100880 80
2001-08-30 06:56 51°13.676 2°55.924 0.1 119 16.1 100880 79
2001-08-30 06:57 51°13.676 2°55.924 0.1 120 16.1 100880 79
2001-08-30 06:58 51°13.676 2°55.924   120 16.1 100880 79
2001-08-30 06:59 51°13.676 2°55.924 0.1 119 16.2 100880 79
2001-08-30 07:00 51°13.675 2°55.924   120 16.1 100880 79
2001-08-30 07:01 51°13.674 2°55.924 0.3 51 16.1 100880 79
2001-08-30 07:02 51°13.674 2°55.917   40 16.2 100880 79
2001-08-30 07:03 51°13.672 2°55.921 0.3 48 16.2 100880 79
2001-08-30 07:04 51°13.692 2°55.854 2.3 192 16.2 100880 79
2001-08-30 07:05 51°13.708 2°55.755 0.7 166 16.2 100880 78
2001-08-30 07:06 51°13.716 2°55.716 1.4 351 16.3 100880 78
2001-08-30 07:07 51°13.797 2°55.681 3.1 2 16.3 100880 78
2001-08-30 07:08 51°13.907 2°55.583 4.3 359 16.3 100880 78
2001-08-30 07:09 51°14.041 2°55.481 3.7 359 16.3 100880 77
2001-08-30 07:10 51°14.143 2°55.408 2.8 356 16.4 100880 78
2001-08-30 07:11 51°14.233 2°55.312 3.8   16.5 100880 78
2001-08-30 07:12 51°14.329 2°55.134 4.3 359 16.5 100880 79
2001-08-30 07:13 51°14.388 2°54.905 5 9 16.6 100870 79
2001-08-30 07:14 51°14.406 2°54.631 6.2 4 16.6 100880 78
2001-08-30 07:15 51°14.402 2°54.305 6.2 1 16.6 100870 78
2001-08-30 07:16 51°14.318 2°54.018 5.6 3 16.6 100870 78
2001-08-30 07:17 51°14.217 2°53.739 5.6 1 16.6 100870 77
2001-08-30 07:18 51°14.109 2°53.446 6.9 2 16.7 100870 77
2001-08-30 07:19 51°13.995 2°53.132 7.7 2 16.8 100870 77
2001-08-30 07:20 51°13.874 2°52.814 7.2 359 16.8 100870 77
2001-08-30 07:21 51°13.765 2°52.499 7.1 360 16.9 100870 77
2001-08-30 07:22 51°13.644 2°52.166 6.3 358 16.9 100870 76
2001-08-30 07:23 51°13.526 2°51.847 6.8 356 16.9 100870 76
2001-08-30 07:24 51°13.408 2°51.525 7.6 359 17 100870 77
2001-08-30 07:25 51°13.292 2°51.214 6.6 2 17 100870 77
2001-08-30 07:26 51°13.172 2°50.879 7.7   17 100870 76
2001-08-30 07:27 51°13.06 2°50.553 7.3 1 17 100870 77
2001-08-30 07:28 51°12.938 2°50.237 7.2 5 16.9 100870 76
2001-08-30 07:29 51°12.817 2°49.92 8.3 5 16.9 100880 76
2001-08-30 07:30 51°12.695 2°49.605 7.5 1 16.9 100870 76
2001-08-30 07:31 51°12.573 2°49.287 7.5 1 16.9 100870 76
2001-08-30 07:32 51°12.461 2°48.963 7.8 3 16.9 100880 76
2001-08-30 07:33 51°12.351 2°48.64 6.9 1 16.9 100870 76
2001-08-30 07:34 51°12.233 2°48.325 7.2 3 16.8 100870 76
2001-08-30 07:35 51°12.126 2°47.998 7.8 5 16.9 100870 76
2001-08-30 07:36 51°12.018 2°47.673 7.5   16.8 100870 75
2001-08-30 07:37 51°11.913 2°47.349 6.5 1 16.8 100870 75
2001-08-30 07:38 51°11.805 2°47.029 7.2 1 16.9 100870 75
2001-08-30 07:39 51°11.699 2°46.708 7.3 5 16.9 100870 74
2001-08-30 07:40 51°11.595 2°46.383 7.2 360 17 100870 75
2001-08-30 07:41 51°11.492 2°46.059 7.4 6 17 100870 75
2001-08-30 07:42 51°11.385 2°45.737 7.2 359 17 100870 75
2001-08-30 07:43 51°11.283 2°45.412 8.3 4 17 100880 75
2001-08-30 07:44 51°11.179 2°45.092 7.4 4 17 100880 75
2001-08-30 07:45 51°11.082 2°44.767 8.1 3 17 100870 75
2001-08-30 07:46 51°10.98 2°44.445 8.8 1 17.1 100880 75
2001-08-30 07:47 51°10.88 2°44.122 8.6 4 17.1 100880 75
2001-08-30 07:48 51°10.785 2°43.797 8.5 1 17.2 100870 76
2001-08-30 07:49 51°10.688 2°43.474 8.8 6 17.3 100870 77
2001-08-30 07:50 51°10.591 2°43.151 7.7 2 17.3 100870 76
2001-08-30 07:51 51°10.494 2°42.83 8.9 1 17.4 100880 77
2001-08-30 07:52 51°10.399 2°42.507 8.3 356 17.5 100880 77
2001-08-30 07:53 51°10.32 2°42.175 7.7 349 17.7 100870 77
2001-08-30 07:54 51°10.265 2°41.831 7 355 17.9 100870 77
2001-08-30 07:55 51°10.217 2°41.483 8.1 350 18.1 100870 76
2001-08-30 07:56 51°10.168 2°41.134 6.9 350 18.2 100870 75
2001-08-30 07:57 51°10.118 2°40.787 6.9 349 18.3 100870 76
2001-08-30 07:58 51°10.061 2°40.442 6.8 347 18.4 100870 77
2001-08-30 07:59 51°10.008 2°40.096 7.1 344 18.4 100870 77
2001-08-30 08:00 51°9.956 2°39.749 7.6 347 18.4 100870 76
2001-08-30 08:01 51°9.9 2°39.404 6.9 349 18.4 100870 75
2001-08-30 08:02 51°9.842 2°39.059 7.1 349 18.4 100870 75
2001-08-30 08:03 51°9.783 2°38.717 8.3 347 18.5 100870 76
2001-08-30 08:04 51°9.722 2°38.378 7.4 346 18.5 100870 76
2001-08-30 08:05 51°9.663 2°38.038 7.8 344 18.5 100870 76
2001-08-30 08:06 51°9.611 2°37.697 6.4 348 18.5 100870 76
2001-08-30 08:07 51°9.558 2°37.369 7.1 346 18.5 100870 77
2001-08-30 08:08 51°9.51 2°37.016 6.9 352 18.6 100870 77
2001-08-30 08:09 51°9.458 2°36.676 8 345 18.5 100880 75
2001-08-30 08:10 51°9.397 2°36.34 6.8 340 18.5 100870 75
2001-08-30 08:11 51°9.34 2°36.016 7.1 350 18.5 100870 76
2001-08-30 08:12 51°9.287 2°35.666 7.5 350 18.5 100870 75
2001-08-30 08:13 51°9.238 2°35.325 7.9 349 18.6 100870 75
2001-08-30 08:14 51°9.188 2°34.986 7.8 347 18.5 100880 75
2001-08-30 08:15 51°9.14 2°34.66 8 347 18.6 100880 75
2001-08-30 08:16 51°9.084 2°34.315 6.6 348 18.6 100880 75
2001-08-30 08:17 51°9.035 2°33.978 8.3 346 18.6 100880 75
2001-08-30 08:18 51°9.085 2°33.674 9.1 359 18.6 100880 76
2001-08-30 08:19 51°9.265 2°33.728 9.8 24 18.6 100880 75
2001-08-30 08:20 51°9.412 2°34.036 9.5 18 18.6 100880 76
2001-08-30 08:21 51°9.577 2°34.303 9.7 14 18.6 100870 76
2001-08-30 08:22 51°9.747 2°34.56 11.6 23 18.6 100870 76
2001-08-30 08:23 51°9.933 2°34.781 10.7 21 18.6 100860 76
2001-08-30 08:24 51°10.116 2°35.007 10.5 18 18.6 100870 75
2001-08-30 08:25 51°10.305 2°35.225 10.9 17 18.6 100870 76
2001-08-30 08:26 51°10.486 2°35.435 11.6 24 18.6 100870 75
2001-08-30 08:27 51°10.678 2°35.669 11.6 25 18.6 100870 75
2001-08-30 08:28 51°10.862 2°35.902 10.5 17 18.6 100860 75
2001-08-30 08:29 51°11.052 2°36.119 12.3 29 18.6 100860 74
2001-08-30 08:30 51°11.23 2°36.361 11.8 24 18.6 100860 74
2001-08-30 08:31 51°11.409 2°36.599 12.1 30 18.6 100860 74
2001-08-30 08:32 51°11.595 2°36.823 11.6 19 18.6 100860 73
2001-08-30 08:33 51°11.787 2°37.029 11.6 22 18.6 100850 73
2001-08-30 08:34 51°11.98 2°37.234 10.9 29 18.6 100850 73
2001-08-30 08:35 51°12.169 2°37.447 11.3 25 18.7 100860 72
2001-08-30 08:36 51°12.374 2°37.613 12.1 23 18.7 100860 72
2001-08-30 08:37 51°12.562 2°37.811 12.8 24 18.7 100850 74
2001-08-30 08:38 51°12.76 2°38.029 12.5 26 18.7 100850 71
2001-08-30 08:39 51°12.947 2°38.253 12.7 25 18.7 100850 72
2001-08-30 08:40 51°13.125 2°38.498 13 29 18.7 100840 72
2001-08-30 08:41 51°13.308 2°38.734 11.4 24 18.7 100850 73
2001-08-30 08:42 51°13.523 2°38.88 12.4 13 18.7 100840 74
2001-08-30 08:43 51°13.746 2°38.976 12.2 11 18.7 100840 74
2001-08-30 08:44 51°13.964 2°38.972 11.8 3 18.7 100850 75
2001-08-30 08:45 51°14.099 2°38.722 10.8 352 18.7 100850 75
2001-08-30 08:46 51°14.124 2°38.39 7.9 338 18.7 100850 75
2001-08-30 08:47 51°14.049 2°38.069 7.7 336 18.6 100860 76
2001-08-30 08:48 51°13.957 2°37.758 7.7 339 18.5 100860 74
2001-08-30 08:49 51°13.866 2°37.453 8.9 335 18.5 100860 74
2001-08-30 08:50 51°13.779 2°37.146 7.5 336 18.4 100860 74
2001-08-30 08:51 51°13.686 2°36.845 7.8 335 18.4 100860 74
2001-08-30 08:52 51°13.602 2°36.539 8.5 340 18.5 100860 74
2001-08-30 08:53 51°13.517 2°36.232 7.9 335 18.4 100860 73
2001-08-30 08:54 51°13.432 2°35.925 8.1 332 18.5 100850 73
2001-08-30 08:55 51°13.35 2°35.616 7.8 338 18.5 100860 72
2001-08-30 08:56 51°13.266 2°35.31 8.9 336 18.5 100850 73
2001-08-30 08:57 51°13.183 2°35.005 8.2 334 18.5 100860 72
2001-08-30 08:58 51°13.098 2°34.702 8.4 337 18.5 100850 74
2001-08-30 08:59 51°13.018 2°34.394 8.6 330 18.5 100860 73
2001-08-30 09:00 51°12.934 2°34.088 8.2 332 18.5 100860 73
2001-08-30 09:01 51°12.848 2°33.783 7 338 18.5 100860 75
2001-08-30 09:02 51°12.757 2°33.489 8.6 332 18.5 100860 74
2001-08-30 09:03 51°12.668 2°33.18 7.8 335 18.6 100860 74
2001-08-30 09:04 51°12.582 2°32.875 7.1 335 18.5 100860 73
2001-08-30 09:05 51°12.505 2°32.565 7.3 333 18.5 100860 72
2001-08-30 09:06 51°12.422 2°32.257 8.5 338 18.5 100860 73
2001-08-30 09:07 51°12.336 2°31.951 6.8 335 18.5 100860 74
2001-08-30 09:08 51°12.252 2°31.644 7.9 335 18.5 100860 75
2001-08-30 09:09 51°12.168 2°31.334 7.3 333 18.4 100860 73
2001-08-30 09:10 51°12.083 2°31.027 7.7 333 18.5 100860 75
2001-08-30 09:11 51°11.997 2°30.72 8.1 337 18.4 100850 73
2001-08-30 09:12 51°11.91 2°30.413 8.3 335 18.4 100860 73
2001-08-30 09:13 51°11.829 2°30.101 8.4 339 18.4 100860 73
2001-08-30 09:14 51°11.748 2°29.79 8.8 333 18.5 100860 76
2001-08-30 09:15 51°11.662 2°29.485 7.7 332 18.4 100860 75
2001-08-30 09:16 51°11.598 2°29.17 8.8 338 18.4 100860 76
2001-08-30 09:17 51°11.552 2°28.853 8 334 18.4 100860 74
2001-08-30 09:18 51°11.498 2°28.549 7.6 333 18.4 100860 75
2001-08-30 09:19 51°11.444 2°28.248 7 335 18.4 100860 74
2001-08-30 09:20 51°11.386 2°27.953 7.7 340 18.4 100860 76
2001-08-30 09:21 51°11.33 2°27.631 7.2 334 18.4 100860 75
2001-08-30 09:22 51°11.281 2°27.316 7.9 333 18.4 100860 76
2001-08-30 09:23 51°11.229 2°27.002 7 335 18.4 100850 75
2001-08-30 09:24 51°11.18 2°26.684 7.3 336 18.4 100860 76
2001-08-30 09:25 51°11.128 2°26.366 6.3 339 18.3 100850 76
2001-08-30 09:26 51°11.074 2°26.054 6.8 338 18.3 100860 77
2001-08-30 09:27 51°11.021 2°25.742 7.9 331 18.2 100860 77
2001-08-30 09:28 51°11.03 2°25.438 8.9 346 18.2 100860 78
2001-08-30 09:29 51°11.216 2°25.316 11.3 4 18.2 100860 78
2001-08-30 09:30 51°11.447 2°25.356 11.1 2 18.2 100860 78
2001-08-30 09:31 51°11.681 2°25.358 11.6 1 18.1 100850 78
2001-08-30 09:32 51°11.915 2°25.366 11.5 3 18.1 100850 78
2001-08-30 09:33 51°12.15 2°25.38 11.4 6 18.1 100850 80
2001-08-30 09:34 51°12.383 2°25.391 12.2 1 18.1 100850 79
2001-08-30 09:35 51°12.613 2°25.444 12.4 7 18.1 100850 78
2001-08-30 09:36 51°12.827 2°25.596 11.8 11 18.1 100840 78
2001-08-30 09:37 51°13.001 2°25.851 12.4 20 18.1 100840 79
2001-08-30 09:38 51°13.164 2°26.133 11.1 17 18.1 100840 80
2001-08-30 09:39 51°13.327 2°26.413 11.7 20 18.1 100830 79
2001-08-30 09:40 51°13.486 2°26.701 12.7 21 18.1 100840 80
2001-08-30 09:41 51°13.647 2°26.982 12.3 16 18 100840 79
2001-08-30 09:42 51°13.804 2°27.268 12.6 22 18 100830 80
2001-08-30 09:43 51°13.963 2°27.554 12 27 18 100830 80
2001-08-30 09:44 51°14.125 2°27.837 11.4 18 18 100840 80
2001-08-30 09:45 51°14.285 2°28.124 12.2 30 18 100850 79
2001-08-30 09:46 51°14.443 2°28.413 11.9 28 18 100840 78
2001-08-30 09:47 51°14.599 2°28.707 12.6 24 17.9 100840 78
2001-08-30 09:48 51°14.757 2°28.999 12.4 21 18 100840 78
2001-08-30 09:49 51°14.914 2°29.294 12.6 21 18 100840 78
2001-08-30 09:50 51°15.073 2°29.588 11.5 26 18 100830 79
2001-08-30 09:51 51°15.233 2°29.88 13.5 27 17.9 100840 77
2001-08-30 09:52 51°15.394 2°30.171 13.1 20 18 100840 79
2001-08-30 09:53 51°15.556 2°30.463 12.7 24 18 100840 78
2001-08-30 09:54 51°15.715 2°30.759 12.7 18 17.9 100840 77
2001-08-30 09:55 51°15.876 2°31.054 12.8 26 18 100840 78
2001-08-30 09:56 51°16.038 2°31.348 11.4 22 18 100840 78
2001-08-30 09:57 51°16.198 2°31.646 14.2 30 18 100840 77
2001-08-30 09:58 51°16.359 2°31.944 12.3 17 18 100840 78
2001-08-30 09:59 51°16.52 2°32.244 12.6 15 18.1 100840 78
2001-08-30 10:00 51°16.683 2°32.54 12.6 19 18 100830 78
2001-08-30 10:01 51°16.848 2°32.833 12 17 18 100830 78
2001-08-30 10:02 51°16.978 2°33.156 10.7 34 18.1 100830 79
2001-08-30 10:03 51°16.854 2°33.369 2.4 13 18 100850 79
2001-08-30 10:04 51°16.655 2°33.504 4.1 42 18 100850 79
2001-08-30 10:05 51°16.465 2°33.706 4.1 35 17.9 100850 79
2001-08-30 10:06 51°16.263 2°33.881 4.5 29 17.9 100850 78
2001-08-30 10:07 51°16.064 2°34.07 6 36 17.9 100860 80
2001-08-30 10:08 51°15.868 2°34.267 4 37 18 100850 80
2001-08-30 10:09 51°15.827 2°34.575 12.2 14 17.9 100840 79
2001-08-30 10:10 51°16.016 2°34.804 12.4 19 18 100830 79
2001-08-30 10:11 51°16.202 2°35.061 12.7 15 18 100830 78
2001-08-30 10:12 51°16.371 2°35.346 12.4 21 18.1 100830 79
2001-08-30 10:13 51°16.537 2°35.638 12.6 23 18.1 100830 78
2001-08-30 10:14 51°16.702 2°35.927 12.3 16 18.1 100830 79
2001-08-30 10:15 51°16.869 2°36.211 12.2 18 18.2 100830 79
2001-08-30 10:16 51°17.034 2°36.497 13.1 18 18.2 100830 79
2001-08-30 10:17 51°17.201 2°36.78 13.1 22 18.1 100820 76
2001-08-30 10:18 51°17.37 2°37.063 13.3 27 18.2 100820 76
2001-08-30 10:19 51°17.535 2°37.359 12.6 20 18.2 100820 75
2001-08-30 10:20 51°17.702 2°37.65 13.7 21 18.2 100830 76
2001-08-30 10:21 51°17.913 2°37.791 10.9 357 18.2 100830 75
2001-08-30 10:22 51°18.039 2°37.542 9.7 337 18.3 100840 76
2001-08-30 10:23 51°18.147 2°37.244 10.9 347 18.3 100840 75
2001-08-30 10:24 51°18.265 2°36.953 10.7 342 18.3 100830 76
2001-08-30 10:25 51°18.379 2°36.665 9.9 348 18.3 100840 75
2001-08-30 10:26 51°18.498 2°36.383 9.5 350 18.3 100840 77
2001-08-30 10:27 51°18.622 2°36.107 9.5 347 18.3 100840 76
2001-08-30 10:28 51°18.744 2°35.827 9.9 343 18.2 100840 77
2001-08-30 10:29 51°18.858 2°35.54 10.4 341 18.2 100840 77
2001-08-30 10:30 51°18.967 2°35.248 10.3 343 18.2 100830 77
2001-08-30 10:31 51°19.138 2°35.054 11.4 358 18.2 100830 78
2001-08-30 10:32 51°19.292 2°35.291 11.6 21 18.1 100830 77
2001-08-30 10:33 51°19.429 2°35.622 13.2 27 18.1 100820 76
2001-08-30 10:34 51°19.58 2°35.94 12.9 25 18.1 100820 75
2001-08-30 10:35 51°19.732 2°36.257 13.4 20 18.2 100830 77
2001-08-30 10:36 51°19.887 2°36.565 12.9 21 18.2 100820 75
2001-08-30 10:37 51°20.042 2°36.874 12.7 25 18.2 100820 75
2001-08-30 10:38 51°20.197 2°37.177 13.2 19 18.2 100820 76
2001-08-30 10:39 51°20.354 2°37.479 13 16 18.2 100820 76
2001-08-30 10:40 51°20.506 2°37.788 13.6 22 18.2 100820 76
2001-08-30 10:41 51°20.668 2°38.084 13.2 17 18.3 100820 78
2001-08-30 10:42 51°20.823 2°38.389 12.3 18 18.2 100820 77
2001-08-30 10:43 51°20.978 2°38.69 13.7 28 18.2 100810 76
2001-08-30 10:44 51°21.065 2°39.031 6 39 18.2 100820 75
2001-08-30 10:45 51°20.962 2°39.343 5.1 38 18.3 100840 76
2001-08-30 10:46 51°20.87 2°39.684 4.7 39 18.3 100830 77
2001-08-30 10:47 51°20.788 2°40.028 7.9 39 18.2 100840 76
2001-08-30 10:48 51°20.699 2°40.363 4.4 37 18.2 100830 76
2001-08-30 10:49 51°20.605 2°40.699 5.2 132 18.2 100840 76
2001-08-30 10:50 51°20.513 2°41.041 3.9 35 18.2 100840 76
2001-08-30 10:51 51°20.412 2°41.378 7.5 42 18.3 100840 76
2001-08-30 10:52 51°20.308 2°41.718 8.3 34 18.3 100840 75
2001-08-30 10:53 51°20.208 2°42.065 7.4 34 18.3 100830 75
2001-08-30 10:54 51°20.109 2°42.412 7.3 42 18.3 100840 75
2001-08-30 10:55 51°20.012 2°42.753 8.5 34 18.4 100830 73
2001-08-30 10:56 51°19.914 2°43.093 4.6 46 18.4 100840 74
2001-08-30 10:57 51°19.825 2°43.436 7.6 39 18.4 100840 74
2001-08-30 10:58 51°19.752 2°43.786 7.7 38 18.4 100840 73
2001-08-30 10:59 51°19.668 2°44.136 7.3 40 18.5 100840 74
2001-08-30 11:00 51°19.579 2°44.484 6.6 43 18.4 100850 72
2001-08-30 11:01 51°19.477 2°44.819 8.8 29 18.5 100850 73
2001-08-30 11:02 51°19.377 2°45.158 6.3 42 18.6 100850 74
2001-08-30 11:03 51°19.284 2°45.499 5.7 38 18.5 100850 70
2001-08-30 11:04 51°19.193 2°45.859 9.1 39 18.5 100850 70
2001-08-30 11:05 51°19.092 2°46.202 6.4 41 18.6 100840 71
2001-08-30 11:06 51°18.997 2°46.55 7.2 36 18.6 100840 71
2001-08-30 11:07 51°18.915 2°46.901 7.3 38 18.6 100840 70
2001-08-30 11:08 51°18.812 2°47.235 6 30 18.6 100840 72
2001-08-30 11:09 51°18.702 2°47.561 8.9 40 18.7 100840 72
2001-08-30 11:10 51°18.606 2°47.904 7.3 43 18.6 100840 71
2001-08-30 11:11 51°18.51 2°48.246 9.7 34 18.6 100850 70
2001-08-30 11:12 51°18.409 2°48.579 7.1 37 18.6 100840 70
2001-08-30 11:13 51°18.309 2°48.911 5.6 36 18.6 100850 70
2001-08-30 11:14 51°18.217 2°49.249 6.4 29 18.6 100850 70
2001-08-30 11:15 51°18.121 2°49.586 4.3 32 18.7 100840 71
2001-08-30 11:16 51°18.026 2°49.921 8.2 38 18.7 100840 71
2001-08-30 11:17 51°17.936 2°50.259 4.2 36 18.7 100840 71
2001-08-30 11:18 51°17.845 2°50.597 8 38 18.7 100850 71
2001-08-30 11:19 51°17.758 2°50.936 4.9 42 18.7 100840 71
2001-08-30 11:20 51°17.664 2°51.27 5.9 324 18.7 100840 72
2001-08-30 11:21 51°17.559 2°51.595 4.5 319 18.7 100850 72
2001-08-30 11:22 51°17.457 2°51.921 6.7 32 18.7 100840 70
2001-08-30 11:23 51°17.312 2°52.185 4.7 20 18.7 100850 71
2001-08-30 11:24 51°17.128 2°52.367 4.2 26 18.7 100850 72
2001-08-30 11:25 51°16.937 2°52.553 3.3 19 18.7 100850 71
2001-08-30 11:26 51°16.746 2°52.728 2.9 32 18.7 100850 71
2001-08-30 11:27 51°16.554 2°52.91 4.5 35 18.8 100850 72
2001-08-30 11:28 51°16.362 2°53.092 3.9 32 18.7 100850 70
2001-08-30 11:29 51°16.169 2°53.269 5 29 18.8 100850 72
2001-08-30 11:30 51°15.976 2°53.448 3.8 36 18.7 100850 70
2001-08-30 11:31 51°15.784 2°53.632 4.2 36 18.8 100850 69
2001-08-30 11:32 51°15.59 2°53.808 3.7 33 18.7 100850 68
2001-08-30 11:33 51°15.396 2°53.978 5.3 23 18.8 100860 70
2001-08-30 11:34 51°15.204 2°54.153 5.7 28 18.9 100860 72
2001-08-30 11:35 51°15.013 2°54.332 4.6 18 18.8 100860 70
2001-08-30 11:36 51°14.823 2°54.516 4.4 23 18.8 100860 70
2001-08-30 11:37 51°14.631 2°54.698 4.8 36 18.8 100870 70
2001-08-30 11:38 51°14.455 2°54.923 5.7 25 18.7 100870 69
2001-08-30 11:39 51°14.299 2°55.182 5.3 23 18.8 100860 69
2001-08-30 11:40 51°14.156 2°55.381 2.7 14 18.8 100860 71
2001-08-30 11:41 51°14.04 2°55.468 0.3 64 18.9 100860 71
2001-08-30 11:42 51°13.918 2°55.558 1.5 14 18.9 100860 71
2001-08-30 11:43 51°13.808 2°55.639 0.2 133 18.9 100860 70
2001-08-30 11:44 51°13.743 2°55.716 1.2 49 18.9 100860 70
2001-08-30 11:45 51°13.712 2°55.784 2 119 18.9 100860 69
2001-08-30 11:46 51°13.703 2°55.808 0.9 126 18.8 100870 67
2001-08-30 11:47 51°13.696 2°55.838 0.8 64 18.8 100860 67
2001-08-30 11:48 51°13.685 2°55.897 1.1 94 18.9 100870 67
2001-08-30 11:49 51°13.678 2°55.919 2.3 123 18.9 100870 67
2001-08-30 11:50 51°13.678 2°55.923 1.9 131 18.9 100870 68